Content
SEND FEEDBACK

United States of America Flag

NEW YORK - CENTRAL PARK, NEW YORK


Home > North America > United States > New York
Elevation: 14 feet     Latitude: 40 47N     Longitude: 073 58W

WEATHER
 
SELECT A DAY
Number of Records: 166,240;   Date Range: 11/1/95 - 3/22/16
 
SHARE

PRINT THIS DATA

[ ← Previous Day ]
WEATHER ALMANAC - MARCH 16, 2013
[ Next Day → ]
[ °C ]   °F
Weather ElementAverageHighLow
Temperature34.3 °F39.9 °F (1:51 am)32 °F (2:11 pm)
Dewpoint26.7 °F30.9 °F (4:51 pm)17.1 °F (8:51 am)
Humidity76 %92 % (3:05 pm)46 % (2:51 am)
Barometer29.83 in29.91 in (10:28 pm)29.78 in (4:51 pm)
Wind Speed3.9 mph8.1 mph (1:51 am)
Wind Gust18.4 mph (1:51 am)
Weather ElementAverage
Visibility5.2 mi
Wind DirectionENE (59.8 °)

Weather ElementTotal
Precipitation0.26 in
Heating Degree Days29.1 (Base 65)
Averaged from 47 records on March 16, 2013
WEATHER CONDITIONS BREAKOUT
WIND DIRECTION BREAKOUT
WEATHER BY HOUR - MARCH 16, 2013
[ °C ]   °F
Local TimeTemperatureDewpointHumidityBarometerVisibilityWind DirectionWind SpeedGust SpeedPrecipitationEventsConditions
1:51 AM39.9 °F23.0 °F51 %29.79 in10.0 miNW (310°)8.1 mph18.4 mphClear
2:51 AM39.0 °F19.9 °F46 %29.80 in10.0 miVariable4.6 mphClear
3:51 AM37.9 °F21.0 °F51 %29.80 in10.0 miWNW (290°)6.9 mphClear
4:51 AM37.0 °F21.0 °F52 %29.81 inNorth
5:51 AM36.0 °F19.0 °F50 %29.83 in10.0 miVariable6.9 mphClear
6:51 AM36.0 °F18.0 °F48 %29.84 in10.0 miNW (310°)5.8 mphClear
7:51 AM36.0 °F18.0 °F48 %29.85 in10.0 miCalmClear
8:51 AM36.0 °F17.1 °F46 %29.86 in10.0 miVariable5.8 mphOvercast
9:51 AM36.0 °F17.1 °F46 %29.84 in10.0 miNNE (30°)6.9 mphOvercast
10:51 AM37.0 °F19.9 °F50 %29.84 in10.0 miVariable6.9 mphOvercast
11:51 AM37.0 °F21.0 °F52 %29.85 in10.0 miCalmOvercast
12:51 PM36.0 °F23.0 °F59 %29.83 in10.0 miSouth (180°)5.8 mphOvercast
1:10 PM36.0 °F26.1 °F67 %29.85 in2.0 miVariable3.5 mph0.00 inSnowLight Snow
1:14 PM35.1 °F26.1 °F70 %29.85 in1.8 miCalm0.00 inSnowLight Snow
1:19 PM36.0 °F27.0 °F70 %29.85 in2.0 miCalm0.00 inSnowLight Snow
1:28 PM35.1 °F26.1 °F70 %29.85 in4.0 miCalm0.00 inSnowLight Snow
1:41 PM34.0 °F27.0 °F75 %29.85 in0.5 miCalm0.01 inSnowSnow
1:51 PM34.0 °F28.0 °F79 %29.82 in0.8 miCalm0.01 inSnowLight Snow
2:11 PM32.0 °F28.9 °F88 %29.85 in0.2 miCalm0.02 inFog-SnowSnow
2:51 PM33.1 °F30.0 °F89 %29.82 in0.8 miCalm0.04 inSnowLight Snow
2:58 PM33.1 °F30.0 °F89 %29.84 in0.8 miCalm0.01 inSnowLight Snow
3:05 PM32.0 °F30.0 °F92 %29.83 in0.8 miCalm0.01 inSnowLight Snow
3:24 PM32.0 °F30.0 °F92 %29.82 in0.8 miNE (50°)3.5 mph0.02 inSnowLight Snow
3:35 PM33.1 °F30.0 °F89 %29.82 in1.0 miNE (50°)4.6 mph0.03 inSnowLight Snow
3:51 PM33.1 °F30.0 °F89 %29.80 in1.8 miNE (50°)5.8 mph0.03 inSnowLight Snow
3:59 PM33.1 °F30.0 °F89 %29.81 in2.0 miNE (50°)4.6 mph0.00 inSnowLight Snow
4:06 PM33.1 °F30.0 °F89 %29.81 in1.2 miCalm0.00 inSnowLight Snow
4:16 PM33.1 °F30.0 °F89 %29.81 in0.5 miNNE (30°)4.6 mph0.01 inFog-SnowSnow
4:34 PM33.1 °F30.0 °F89 %29.80 in1.8 miNE (50°)6.9 mph0.01 inSnowLight Snow
4:51 PM33.1 °F30.9 °F92 %29.78 in1.2 miENE (70°)6.9 mph0.02 inSnowLight Snow
5:24 PM33.1 °F30.0 °F89 %29.82 in3.0 miENE (60°)5.8 mph0.00 inSnowLight Snow
5:46 PM33.8 °F30.2 °F87 %29.81 in1.5 miEast (80°)6.9 mph0.01 inSnowLight Snow
5:51 PM33.1 °F30.0 °F89 %29.79 in0.8 miENE (60°)5.8 mph0.01 inSnowLight Snow
6:00 PM33.1 °F30.0 °F89 %29.81 in2.0 miENE (60°)8.1 mph0.00 inSnowLight Snow
6:09 PM33.1 °F30.0 °F89 %29.81 in5.0 miENE (70°)4.6 mph0.00 inOvercast
6:25 PM33.1 °F28.9 °F85 %29.82 in7.0 miENE (60°)5.8 mph0.00 inOvercast
6:37 PM33.1 °F30.0 °F89 %29.81 in8.0 miENE (60°)5.8 mph0.00 inOvercast
6:51 PM33.1 °F30.0 °F89 %29.80 in3.0 miNE (50°)4.6 mph0.00 inSnowLight Snow
7:41 PM33.1 °F30.0 °F89 %29.84 in3.0 miNorth (360°)6.9 mph0.01 inSnowLight Snow
7:51 PM33.1 °F30.0 °F89 %29.83 in5.0 miNNE (30°)3.5 mph0.01 inOvercast
8:22 PM33.1 °F28.9 °F85 %29.86 in8.0 miVariable3.5 mphOvercast
8:51 PM33.1 °F30.0 °F89 %29.86 in9.0 miCalmOvercast
9:06 PM33.1 °F28.9 °F85 %29.89 in10.0 miNE (50°)4.6 mphOvercast
9:51 PM33.1 °F28.0 °F82 %29.88 in10.0 miNE (50°)4.6 mphOvercast
10:28 PM33.1 °F27.0 °F78 %29.91 in10.0 miNorth (350°)5.8 mphOvercast
10:51 PM33.1 °F28.0 °F82 %29.90 in10.0 miVariable4.6 mphOvercast
11:51 PM33.1 °F28.0 °F82 %29.91 in10.0 miCalmOvercast
Hourly data recorded from KNYC, located miles away from New York - Central Park, New York




STORIES FROM OUR PARTNERS